Providence, RI

10:32 PM EDT on April 25, 2017 (GMT -0400)
Green State

Weather History for KPVD - February, 2014

Change the Weather History Date:

Tuesday, February 25, 2014

  Actual Average Record
Temperature  
Mean Temperature 25 °F 34 °F  
Max Temperature 31 °F 42 °F 69 °F (1976)
Min Temperature 19 °F 25 °F 1 °F (1914)
Degree Days  
Heating Degree Days 40 31  
Month to date heating degree days 882 833  
Since 1 July heating degree days 4138 3970  
Cooling Degree Days 0 0  
Month to date cooling degree days 0 0  
Year to date cooling degree days 0 0  
Moisture  
Dew Point 7 °F    
Average Humidity 49    
Maximum Humidity 62    
Minimum Humidity 36    
Precipitation  
Precipitation 0.00 in 0.13 in 2.11 in (1965)
Month to date precipitation 4.68 2.89  
Year to date precipitation 8.37 6.75  
Snow  
Snow 0.00 in 0.20 in 10.70 in (1999)
Month to date snowfall 19.7 7.7  
Since 1 July snowfall 41.8 26.9  
Snow Depth T in    
Sea Level Pressure  
Sea Level Pressure 29.97 in    
Wind  
Wind Speed 10 mph (West)    
Max Wind Speed 22 mph    
Max Gust Speed 27 mph    
Visibility 10 miles    
Events      
T = Trace of Precipitation, MM = Missing Value Source: NWS Daily Summary

Daily Weather History Graph

Daily Weather History Graph

Search for Another Location

Airport or City:

Trip Planner

Search our weather history database for the weather conditions in past years. The results will help you decide how hot, cold, wet, or windy it might be!

Date:

Astronomy

Feb. 25, 2014 Rise Set
Actual Time 6:26 AM EST 5:31 PM EST
Civil Twilight 5:58 AM EST 5:59 PM EST
Nautical Twilight 5:26 AM EST 6:31 PM EST
Astronomical Twilight 4:54 AM EST 7:03 PM EST
Moon 3:21 AM EST (2/25) 1:31 PM EST (2/25)
Length of Visible Light 12h 00m
Length of Day
11h 04m
Waning Crescent, 18% of the Moon is Illuminated
Feb 25
Waning Crescent
Mar 1
New
Mar 8
First Quarter
Mar 16
Full
Mar 23
Last Quarter

Hourly Weather History & Observations

Time (EST) Temp. Windchill Dew Point Humidity Pressure Visibility Wind Dir Wind Speed Gust Speed Precip Events Conditions
12:51 AM 23.0 °F 12.4 °F 6.1 °F 48% 29.99 in 10.0 mi WNW 10.4 mph - N/A   Clear
1:51 AM 21.9 °F 12.5 °F 5.0 °F 48% 30.00 in 10.0 mi West 8.1 mph - N/A   Clear
2:51 AM 21.0 °F 12.4 °F 5.0 °F 50% 30.00 in 10.0 mi West 6.9 mph - N/A   Clear
3:51 AM 21.0 °F 11.4 °F 5.0 °F 50% 30.00 in 10.0 mi West 8.1 mph - N/A   Clear
4:51 AM 19.9 °F 12.1 °F 3.9 °F 50% 30.01 in 10.0 mi West 5.8 mph - N/A   Clear
5:51 AM 19.9 °F 11.1 °F 5.0 °F 52% 30.01 in 10.0 mi West 6.9 mph - N/A   Partly Cloudy
6:51 AM 19.9 °F 8.6 °F 5.0 °F 52% 30.02 in 10.0 mi West 10.4 mph - N/A   Partly Cloudy
7:51 AM 21.9 °F 11.0 °F 5.0 °F 48% 30.03 in 10.0 mi West 10.4 mph - N/A   Mostly Cloudy
8:51 AM 23.0 °F 11.7 °F 6.1 °F 48% 30.03 in 10.0 mi West 11.5 mph - N/A   Mostly Cloudy
9:51 AM 24.1 °F 12.5 °F 5.0 °F 44% 30.01 in 10.0 mi WNW 12.7 mph - N/A   Overcast
10:51 AM 24.1 °F 12.0 °F 6.1 °F 46% 30.00 in 10.0 mi WSW 13.8 mph - N/A   Overcast
11:51 AM 26.1 °F 13.6 °F 7.0 °F 44% 29.97 in 10.0 mi West 16.1 mph 23.0 mph N/A   Mostly Cloudy
12:51 PM 28.9 °F 17.3 °F 8.1 °F 41% 29.94 in 10.0 mi WSW 16.1 mph 24.2 mph N/A   Mostly Cloudy
1:51 PM 28.9 °F 17.7 °F 7.0 °F 40% 29.91 in 10.0 mi West 15.0 mph 24.2 mph N/A   Mostly Cloudy
2:51 PM 30.0 °F 19.5 °F 7.0 °F 38% 29.90 in 10.0 mi West 13.8 mph - N/A   Mostly Cloudy
3:51 PM 28.9 °F 18.2 °F 8.1 °F 41% 29.88 in 10.0 mi West 13.8 mph 23.0 mph N/A   Mostly Cloudy
4:51 PM 28.9 °F 18.6 °F 8.1 °F 41% 29.89 in 10.0 mi West 12.7 mph - N/A   Mostly Cloudy
5:51 PM 27.0 °F 18.0 °F 10.0 °F 49% 29.91 in 10.0 mi NNW 9.2 mph - N/A   Scattered Clouds
6:51 PM 25.0 °F 18.1 °F 10.0 °F 53% 29.94 in 10.0 mi NW 5.8 mph - N/A   Partly Cloudy
7:51 PM 24.1 °F 17.0 °F 10.9 °F 57% 29.94 in 10.0 mi WNW 5.8 mph - N/A   Clear
8:51 PM 23.0 °F 15.8 °F 10.0 °F 58% 29.96 in 10.0 mi West 5.8 mph - N/A   Clear
9:51 PM 21.9 °F 13.4 °F 8.1 °F 55% 29.98 in 10.0 mi West 6.9 mph - N/A   Clear
10:51 PM 19.9 °F 13.4 °F 8.1 °F 60% 29.99 in 10.0 mi West 4.6 mph - N/A   Clear
11:51 PM 21.0 °F 11.4 °F 3.9 °F 48% 29.97 in 10.0 mi WNW 8.1 mph - N/A   Clear